�������l�o���
Date,Time,MP-1(��Sv/h),MP-2(��Sv/h),MP-3(��Sv/h),MP-4(��Sv/h),MP-5(��Sv/h),MP-6(��Sv/h),MP-7(��Sv/h),MP-8(��Sv/h),����,����(m/s),���J
2016/11/23,00:00,1.087,1.841,1.232,2.062,1.429,0.576,1.044,0.967,�k�k��,2.3,��
2016/11/23,00:10,1.087,1.838,1.236,2.062,1.432,0.576,1.043,0.965,�k�k��,6.2,��
2016/11/23,00:20,1.086,1.842,1.233,2.066,1.431,0.576,1.044,0.966,�k,8.3,��
2016/11/23,00:30,1.086,1.838,1.234,2.061,1.429,0.574,1.041,0.964,�k,10.2,�L
2016/11/23,00:40,1.088,1.840,1.230,2.061,1.426,0.575,1.040,0.966,�k,12.7,��
2016/11/23,00:50,1.084,1.833,1.233,2.061,1.429,0.575,1.043,0.966,�k,10.6,��
2016/11/23,01:00,1.084,1.840,1.229,2.062,1.425,0.575,1.042,0.964,�k,9.8,�L
2016/11/23,01:10,1.085,1.839,1.231,2.058,1.428,0.576,1.041,0.966,�k,9.9,�L
2016/11/23,01:20,1.087,1.838,1.231,2.057,1.425,0.579,1.039,0.964,�k,7.5,�L
2016/11/23,01:30,1.084,1.826,1.229,2.055,1.417,0.581,1.036,0.963,�k,12.4,�L
2016/11/23,01:40,1.081,1.819,1.229,2.048,1.417,0.583,1.036,0.962,�k,11.1,�L
2016/11/23,01:50,1.081,1.820,1.229,2.050,1.418,0.582,1.036,0.962,�k,12.7,�L
2016/11/23,02:00,1.079,1.821,1.227,2.049,1.414,0.584,1.035,0.961,�k�k��,12.0,�L
2016/11/23,02:10,1.079,1.823,1.227,2.047,1.415,0.583,1.035,0.961,�k,10.4,�L
2016/11/23,02:20,1.081,1.820,1.224,2.047,1.413,0.582,1.037,0.963,�k,11.1,��
2016/11/23,02:30,1.078,1.822,1.224,2.043,1.414,0.580,1.038,0.961,�k,11.6,��
2016/11/23,02:40,1.079,1.820,1.225,2.046,1.415,0.579,1.035,0.960,�k,11.9,��
2016/11/23,02:50,1.076,1.823,1.223,2.045,1.413,0.575,1.034,0.961,�k,11.8,��
2016/11/23,03:00,1.076,1.817,1.227,2.045,1.411,0.576,1.036,0.960,�k,10.2,��
2016/11/23,03:10,1.075,1.818,1.226,2.043,1.412,0.576,1.037,0.959,�k,10.7,�L
2016/11/23,03:20,1.075,1.822,1.223,2.047,1.411,0.574,1.034,0.959,�k,9.2,��
2016/11/23,03:30,1.073,1.819,1.223,2.049,1.411,0.574,1.035,0.959,�k,8.9,�L
2016/11/23,03:40,1.074,1.821,1.221,2.046,1.410,0.575,1.034,0.960,�k,10.2,�L
2016/11/23,03:50,1.072,1.820,1.223,2.045,1.408,0.573,1.036,0.960,�k,8.4,��
2016/11/23,04:00,1.071,1.819,1.220,2.044,1.410,0.572,1.037,0.958,�k,7.5,��
2016/11/23,04:10,1.072,1.820,1.222,2.045,1.409,0.572,1.035,0.959,�k,7.1,��
2016/11/23,04:20,1.073,1.817,1.221,2.049,1.407,0.569,1.036,0.961,�k,7.3,��
2016/11/23,04:30,1.070,1.823,1.217,2.042,1.411,0.570,1.037,0.959,�k�k��,7.8,�L
2016/11/23,04:40,1.071,1.822,1.220,2.046,1.407,0.571,1.037,0.957,�k�k��,8.2,��
2016/11/23,04:50,1.075,1.822,1.219,2.046,1.411,0.571,1.037,0.961,�k�k��,9.3,��
2016/11/23,05:00,1.073,1.821,1.218,2.045,1.410,0.569,1.035,0.959,�k�k��,10.5,��
2016/11/23,05:10,1.073,1.824,1.222,2.043,1.412,0.568,1.036,0.959,�k,8.0,��
2016/11/23,05:20,1.072,1.819,1.223,2.045,1.411,0.569,1.035,0.960,�k,7.7,��
2016/11/23,05:30,1.072,1.822,1.221,2.048,1.407,0.569,1.037,0.959,�k,4.1,�L
2016/11/23,05:40,1.071,1.820,1.222,2.050,1.411,0.568,1.036,0.959,�k,6.3,�L
2016/11/23,05:50,1.072,1.820,1.221,2.049,1.411,0.570,1.037,0.960,�k,7.1,��
2016/11/23,06:00,1.074,1.821,1.220,2.048,1.410,0.569,1.038,0.959,�k,6.7,��
2016/11/23,06:10,1.074,1.819,1.224,2.045,1.410,0.568,1.037,0.959,�k,6.3,��
2016/11/23,06:20,1.072,1.820,1.219,2.046,1.412,0.568,1.038,0.958,�k,6.7,��
2016/11/23,06:30,1.072,1.822,1.221,2.043,1.411,0.568,1.037,0.958,�k,5.7,��
2016/11/23,06:40,1.073,1.822,1.225,2.046,1.412,0.569,1.036,0.957,�k,4.6,��
2016/11/23,06:50,1.074,1.818,1.227,2.047,1.412,0.566,1.036,0.961,�k,4.7,��
2016/11/23,07:00,1.073,1.820,1.224,2.046,1.411,0.568,1.035,0.959,�k,4.9,��
2016/11/23,07:10,1.074,1.822,1.226,2.047,1.409,0.567,1.037,0.959,�k�k��,6.1,��
2016/11/23,07:20,1.072,1.823,1.227,2.046,1.413,0.569,1.038,0.960,�k��,7.4,��
2016/11/23,07:30,1.074,1.823,1.227,2.046,1.412,0.568,1.035,0.960,�k�k��,7.4,��
2016/11/23,07:40,1.075,1.821,1.229,2.050,1.413,0.569,1.039,0.960,�k��,8.5,��
2016/11/23,07:50,1.075,1.821,1.224,2.049,1.413,0.569,1.038,0.961,�k��,9.5,��
2016/11/23,08:00,1.073,1.825,1.226,2.050,1.416,0.568,1.039,0.961,�k��,5.4,��
2016/11/23,08:10,1.072,1.824,1.225,2.053,1.413,0.568,1.036,0.961,�k��,4.6,��
2016/11/23,08:20,1.072,1.824,1.227,2.053,1.415,0.570,1.037,0.960,�k�k��,3.9,��
2016/11/23,08:30,1.073,1.821,1.225,2.053,1.415,0.568,1.034,0.958,�k�k��,3.6,��
2016/11/23,08:40,1.074,1.827,1.226,2.050,1.418,0.568,1.036,0.960,�k��,5.8,��
2016/11/23,08:50,1.074,1.825,1.223,2.055,1.417,0.568,1.035,0.960,�k��,5.1,��
2016/11/23,09:00,1.077,1.827,1.225,2.053,1.416,0.569,1.036,0.962,�k��,8.6,��
2016/11/23,09:10,1.077,1.829,1.228,2.054,1.418,0.571,1.038,0.962,�k��,7.9,��
2016/11/23,09:20,1.079,1.828,1.228,2.056,1.419,0.569,1.037,0.961,�k��,9.2,��
2016/11/23,09:30,1.080,1.827,1.229,2.055,1.419,0.570,1.034,0.961,�k��,7.1,��
2016/11/23,09:40,1.080,1.829,1.227,2.055,1.420,0.570,1.037,0.961,�k��,8.7,��
2016/11/23,09:50,1.085,1.829,1.227,2.057,1.421,0.569,1.036,0.963,���k��,12.7,��
2016/11/23,10:00,1.086,1.831,1.226,2.057,1.421,0.570,1.035,0.964,���k��,10.7,��
2016/11/23,10:10,1.085,1.829,1.229,2.058,1.417,0.570,1.037,0.962,�k��,11.3,��
2016/11/23,10:20,1.084,1.830,1.231,2.061,1.420,0.570,1.037,0.963,�k��,11.7,��
2016/11/23,10:30,1.086,1.831,1.230,2.061,1.421,0.572,1.039,0.962,�k��,11.6,��
2016/11/23,10:40,1.087,1.832,1.229,2.060,1.421,0.571,1.037,0.963,�k��,12.2,��
2016/11/23,10:50,1.087,1.834,1.229,2.061,1.425,0.569,1.036,0.963,�k��,13.2,��
2016/11/23,11:00,1.086,1.833,1.231,2.062,1.422,0.571,1.039,0.965,�k��,13.0,��
2016/11/23,11:10,1.086,1.834,1.232,2.060,1.428,0.572,1.038,0.966,�k��,11.0,��
2016/11/23,11:20,1.089,1.837,1.234,2.063,1.427,0.572,1.039,0.964,�k��,11.7,��
2016/11/23,11:30,1.090,1.836,1.229,2.061,1.426,0.571,1.038,0.964,�k�k��,9.0,��
2016/11/23,11:40,1.088,1.836,1.235,2.067,1.422,0.571,1.041,0.963,�k��,12.7,��
2016/11/23,11:50,1.088,1.840,1.232,2.064,1.424,0.571,1.042,0.965,�k��,13.3,��
2016/11/23,12:00,1.088,1.838,1.234,2.067,1.426,0.571,1.039,0.964,�k��,10.6,��
2016/11/23,12:10,1.091,1.837,1.235,2.067,1.427,0.574,1.038,0.964,�k��,13.2,��
2016/11/23,12:20,1.089,1.836,1.236,2.069,1.424,0.573,1.038,0.964,�k��,13.8,��
2016/11/23,12:30,1.088,1.836,1.237,2.067,1.427,0.570,1.037,0.965,�k��,11.6,��
2016/11/23,12:40,1.091,1.837,1.235,2.066,1.424,0.571,1.040,0.964,�k��,11.9,��
2016/11/23,12:50,1.090,1.831,1.238,2.069,1.425,0.573,1.040,0.965,�k�k��,9.7,��
2016/11/23,13:00,1.090,1.831,1.239,2.069,1.426,0.571,1.037,0.962,�k�k��,11.4,��
2016/11/23,13:10,1.091,1.835,1.236,2.069,1.426,0.572,1.041,0.962,�k��,11.4,��
2016/11/23,13:20,1.090,1.834,1.237,2.071,1.426,0.572,1.039,0.962,�k��,8.5,��
2016/11/23,13:30,1.092,1.834,1.239,2.067,1.428,0.572,1.039,0.963,�k��,6.4,��
2016/11/23,13:40,1.091,1.836,1.240,2.066,1.425,0.572,1.038,0.964,�k��,6.5,��
2016/11/23,13:50,1.093,1.837,1.238,2.071,1.432,0.572,1.039,0.964,�k��,6.0,��
2016/11/23,14:00,1.094,1.838,1.237,2.068,1.430,0.572,1.038,0.965,�k�k��,8.0,��
2016/11/23,14:10,1.091,1.839,1.237,2.067,1.430,0.573,1.038,0.966,�k�k��,9.7,��
2016/11/23,14:20,1.093,1.846,1.237,2.070,1.430,0.571,1.038,0.966,�k�k��,8.6,��
2016/11/23,14:30,1.091,1.840,1.235,2.070,1.432,0.573,1.039,0.966,�k�k��,8.3,��
2016/11/23,14:40,1.091,1.838,1.237,2.073,1.431,0.572,1.037,0.964,�k�k��,9.3,��
2016/11/23,14:50,1.092,1.841,1.238,2.069,1.431,0.572,1.038,0.966,�k�k��,10.0,��
2016/11/23,15:00,1.091,1.842,1.237,2.070,1.431,0.572,1.037,0.965,�k�k��,8.2,��
2016/11/23,15:10,1.092,1.838,1.237,2.071,1.432,0.572,1.038,0.966,�k�k��,8.4,��
2016/11/23,15:20,1.092,1.840,1.237,2.072,1.430,0.572,1.038,0.964,�k,6.8,��
2016/11/23,15:30,1.091,1.846,1.236,2.070,1.427,0.571,1.038,0.965,�k�k��,9.1,��
2016/11/23,15:40,1.092,1.840,1.239,2.069,1.430,0.572,1.039,0.964,�k,9.0,��
2016/11/23,15:50,1.092,1.846,1.237,2.070,1.429,0.571,1.039,0.966,�k,8.4,��
2016/11/23,16:00,1.093,1.843,1.236,2.068,1.430,0.572,1.040,0.965,�k,8.4,��
2016/11/23,16:10,1.091,1.843,1.238,2.068,1.427,0.571,1.041,0.964,�k�k��,7.9,��
2016/11/23,16:20,1.090,1.841,1.234,2.071,1.430,0.571,1.040,0.965,�k�k��,8.6,��
2016/11/23,16:30,1.092,1.842,1.234,2.068,1.430,0.572,1.040,0.963,�k�k��,8.6,��
2016/11/23,16:40,1.093,1.844,1.236,2.072,1.432,0.572,1.039,0.963,�k�k��,8.0,��
2016/11/23,16:50,1.088,1.843,1.235,2.069,1.429,0.571,1.042,0.963,�k��,7.8,��
2016/11/23,17:00,1.089,1.843,1.235,2.069,1.429,0.571,1.040,0.965,�k��,7.7,��
2016/11/23,17:10,1.086,1.840,1.236,2.070,1.428,0.571,1.041,0.964,�k�k��,7.1,��
2016/11/23,17:20,1.088,1.843,1.233,2.068,1.431,0.571,1.042,0.962,�k�k��,5.2,��
2016/11/23,17:30,1.089,1.841,1.234,2.069,1.430,0.571,1.039,0.964,�k�k��,5.2,��
2016/11/23,17:40,1.089,1.841,1.235,2.070,1.428,0.569,1.040,0.964,�k�k��,6.9,��
2016/11/23,17:50,1.090,1.842,1.233,2.070,1.430,0.570,1.039,0.964,�k�k��,8.2,��
2016/11/23,18:00,1.089,1.842,1.237,2.072,1.431,0.571,1.039,0.965,�k�k��,8.5,��
2016/11/23,18:10,1.087,1.843,1.236,2.071,1.430,0.570,1.041,0.964,�k�k��,8.3,��
2016/11/23,18:20,1.088,1.840,1.236,2.072,1.430,0.569,1.037,0.965,�k�k��,8.0,��
2016/11/23,18:30,1.089,1.839,1.235,2.069,1.429,0.569,1.037,0.964,�k�k��,7.7,��
2016/11/23,18:40,1.088,1.841,1.235,2.072,1.433,0.571,1.039,0.964,�k�k��,8.1,��
2016/11/23,18:50,1.091,1.846,1.237,2.068,1.433,0.570,1.040,0.963,�k�k��,8.8,��
2016/11/23,19:00,1.088,1.849,1.233,2.070,1.432,0.570,1.039,0.964,�k�k��,8.9,��
2016/11/23,19:10,1.088,1.838,1.233,2.073,1.428,0.573,1.039,0.963,�k��,7.8,��
2016/11/23,19:20,1.088,1.843,1.236,2.069,1.428,0.571,1.039,0.966,�k��,7.1,��
2016/11/23,19:30,1.088,1.841,1.236,2.071,1.430,0.570,1.039,0.963,�k��,7.3,��
2016/11/23,19:40,1.089,1.842,1.234,2.073,1.431,0.569,1.041,0.964,�k��,8.9,��
2016/11/23,19:50,1.087,1.841,1.234,2.069,1.428,0.572,1.038,0.964,�k��,7.6,��
2016/11/23,20:00,1.089,1.844,1.234,2.071,1.430,0.570,1.037,0.964,�k,5.4,��
2016/11/23,20:10,1.089,1.842,1.235,2.069,1.430,0.568,1.040,0.965,�k�k��,6.4,��
2016/11/23,20:20,1.087,1.841,1.233,2.069,1.432,0.570,1.041,0.966,�k�k��,6.9,��
2016/11/23,20:30,1.086,1.844,1.233,2.072,1.428,0.570,1.040,0.962,�k��,7.8,��
2016/11/23,20:40,1.091,1.841,1.237,2.071,1.429,0.570,1.038,0.964,�k��,7.5,��
2016/11/23,20:50,1.088,1.839,1.233,2.071,1.429,0.570,1.038,0.963,�k��,7.8,��
2016/11/23,21:00,1.087,1.843,1.231,2.071,1.431,0.570,1.039,0.964,�k��,7.9,��
2016/11/23,21:10,1.090,1.844,1.232,2.068,1.430,0.570,1.041,0.961,�k��,7.4,��
2016/11/23,21:20,1.086,1.841,1.234,2.070,1.430,0.571,1.040,0.963,�k��,7.6,��
2016/11/23,21:30,1.087,1.842,1.233,2.072,1.432,0.570,1.038,0.963,�k��,6.4,��
2016/11/23,21:40,1.087,1.840,1.235,2.068,1.430,0.569,1.040,0.963,�k��,6.5,��
2016/11/23,21:50,1.085,1.842,1.234,2.069,1.432,0.568,1.038,0.963,�k��,6.1,��
2016/11/23,22:00,1.087,1.842,1.231,2.073,1.428,0.568,1.040,0.962,�k��,6.0,��
2016/11/23,22:10,1.086,1.845,1.233,2.070,1.429,0.570,1.039,0.963,�k��,8.0,��
2016/11/23,22:20,1.088,1.842,1.233,2.073,1.430,0.571,1.039,0.963,�k��,7.2,��
2016/11/23,22:30,1.085,1.842,1.235,2.069,1.429,0.570,1.037,0.963,�k��,5.6,��
2016/11/23,22:40,1.089,1.841,1.234,2.070,1.429,0.570,1.040,0.964,�k��,3.7,��
2016/11/23,22:50,1.088,1.845,1.233,2.074,1.427,0.570,1.041,0.965,�k��,2.0,��
2016/11/23,23:00,1.088,1.843,1.234,2.070,1.430,0.570,1.039,0.962,�k��,2.8,��
2016/11/23,23:10,1.085,1.843,1.233,2.071,1.430,0.570,1.040,0.964,�k��,4.6,��
2016/11/23,23:20,1.088,1.846,1.233,2.072,1.431,0.570,1.040,0.962,�k��,5.5,��
2016/11/23,23:30,1.085,1.843,1.235,2.071,1.431,0.571,1.040,0.964,�k��,3.7,��
2016/11/23,23:40,1.087,1.846,1.234,2.069,1.432,0.570,1.040,0.963,�k�k��,5.2,��
2016/11/23,23:50,1.088,1.843,1.233,2.076,1.432,0.569,1.041,0.964,�k��,6.1,��
